Погода в Каламаки

Греция     37°44′16″N   20°53′35″E
темп.,
°C
ветер,
м/с
пор.,
м/с
влажн.,
%
обл.,
%
осадки,
мм/ч
давл.,
гПа
погр.,
м
17 мая, вт
вт1700:00+21зюз227422 0.0 101920
03:00+20сз22740 0.0 101828
06:00+20с33780 0.0 101781
09:00+20ссв34840 0.0 1017169
12:00+21сз22760 0.0 101888
15:00+22з22681 0.0 1017205
18:00+21вюв12721 0.0 1016138
21:00+21ссв117696 0.0 101619
18 мая, ср
ср1800:00+21сз22761 0.0 101625
03:00+20зсз12765 0.0 101413
06:00+20с22790 0.0 101424
09:00+20с33800 0.0 101595
12:00+21с23790 0.0 1015163
15:00+22ссз34740 0.0 1014221
18:00+22сз44750 0.0 1013150
21:00+21св22821 0.0 101436
19 мая, чт
чт1900:00+21ссз448452 0.0 101588
03:00+20с7878100 0.0 1015249
06:00+20в587161 0.0 1018617
09:00+18св336669 0.0 1021512
12:00+18с536254 0.2 1023498
15:00+20с44521 0.4 1023409
18:00+21ссв810560 0.0 1022249
21:00+20св810600 0.0 1023229
20 мая, пт
пт2000:00+19св67550 0.0 1025384
03:00+18ссв78550 0.0 1025439
06:00+18ссв78570 0.0 1025418
09:00+18ссв56550 0.0 1025377
12:00+19с56530 0.0 1025273
15:00+21сз45530 0.0 1024165
18:00+21ссз67650 0.0 1022207
21:00+21ссз45730 0.0 1022127
21 мая, сб
сб2100:00+20с23720 0.0 102183
03:00+20с35790 0.0 1020233
06:00+19ссв12745 0.0 1019155
09:00+19св1165100 0.0 1019126
12:00+19вюв0159100 0.0 101999
15:00+21з126238 0.0 1017232
18:00+23сз34631 0.0 1016241
21:00+21ссв01750 0.0 101622